Regional Weather Roundup
Issued by NWS Jackson, KY

Current Version | Previous Version | Text Only | Print | Product List | Glossary On
Versions: 1 2 3 4 5 6 7 8 9 10 11 12 13 14 15 16 17 18 19 20 21 22 23 24 25 26 27 28 29 30 31 32 33 34 35 36 37 38 39 40 41 42 43 44 45 46 47 48 49 50
000 ASUS43 KJKL 050510 RWRJKL EAST KENTUCKY HOURLY WEATHER ROUNDUP NATIONAL WEATHER SERVICE JACKSON KY 1200 AM EST FRI MAR 05 2021 NOTE: "FAIR" INDICATES FEW OR NO CLOUDS BELOW 12,000 FEET WITH NO SIGNIFICANT WEATHER AND/OR OBSTRUCTIONS TO VISIBILITY. * THESE REPORTS ARE NOT UNDER NWS QUALITY CONTROL AND MAY NOT REPORT WEATHER SUCH AS PRECIPITATION AND FOG. KYZ079-080-083-085-087-088-110-112-115-119-120-050600 ...EASTERN KENTUCKY... CITY SKY/WX TMP DP RH WIND PRES REMARKS JACKSON CLEAR 32 23 69 NE7 30.18R WCI 26 LONDON CLEAR 40 22 48 N9 30.16R WCI 34 SOMERSET* CLEAR 37 19 48 N10 30.19R WCI 30 MONTICELLO* CLEAR 40 26 57 N14 30.19S WCI 32 WILLIAMSBURG* N/A 41 19 42 N7 30.15S MIDDLESBORO* CLEAR 41 24 50 N3 30.13F HARLAN APT* CLEAR 41 20 43 N6 30.13R PIKE CO APT* N/A 31 22 69 N9 30.16S WCI 23 BIG SANDY APT* CLEAR 30 23 73 N7 30.19R WCI 23 MOREHEAD APT* CLEAR 28 18 64 NE5 30.24S WCI 23 ASHLAND* N/A N/A N/A N/A MISG N/A $$ KYZ035-036-041-042-044-050-067-078-099-050600 ...CENTRAL KENTUCKY... CITY SKY/WX TMP DP RH WIND PRES REMARKS MT STERLING* CLEAR 30 21 69 NE8 30.25S WCI 23 FLEMING/MASON* CLEAR 28 19 69 NE6 30.27S WCI 21 DANVILLE* CLEAR 32 27 80 NE14 30.23R WCI 22 RICHMOND* N/A 32 27 80 NE8 30.22R WCI 25 LEXINGTON CLEAR 28 21 75 NE13 30.23S WCI 17 FRANKFORT CLEAR 34 22 61 NE9 30.24R WCI 27 LOUISVILLE CLEAR 38 27 64 NE8 30.26R WCI 32 LEBANON* N/A 37 27 65 NE7 30.22R WCI 32 GLASGOW* CLEAR 42 25 50 CALM 30.19S BOWLING GREEN CLEAR 46 25 43 NE8 30.19S $$ KYZ091>093-OHZ055-061-077-WVZ005-015-034-035-042-050600 ...SOUTHERN OHIO/WEST VIRGINIA... CITY SKY/WX TMP DP RH WIND PRES REMARKS COVINGTON CLEAR 31 18 58 NE9 30.25F WCI 23 COLUMBUS CLEAR 24 16 71 N6 30.27S WCI 17 DAYTON CLEAR 25 16 68 N8 30.27F WCI 16 WILMINGTON CLEAR 24 19 81 NE8 30.25S WCI 15 HUNTINGTON PTCLDY 30 18 60 N9 30.22S WCI 22 CHARLESTON CLOUDY 31 19 61 NW10G17 30.19R WCI 22 PINEVILLE* N/A 36 25 64 MISG 30.14S BECKLEY PTCLDY 29 21 72 N18G24 30.06S WCI 16 BLUEFIELD CLEAR 31 19 61 NW15G22 30.03S WCI 20 LOGAN CO APT* CLOUDY 30 23 74 N10 30.15R WCI 21 $$ VAZ002-007-008-TNZ017-027-036-066-071-050600 ...SOUTHWEST VIRGINIA/EAST TENNESSEE... CITY SKY/WX TMP DP RH WIND PRES REMARKS WISE* CLEAR 34 18 51 N7 30.09S WCI 28 JONESVILLE* N/A 41 21 45 CALM 30.12S ABINGDON* CLEAR 39 9 28 N6 30.06F BRISTOL CLEAR 43 19 38 N9 30.08S MORRISTOWN* CLEAR 48 23 37 N9G15 30.07F SEVIERVILLE* CLEAR 39 30 70 CALM 30.09F KNOXVILLE CLEAR 49 27 42 N6 30.10R LAFOLLETTE* CLEAR 46 21 36 CALM 30.15S OAK RIDGE CLEAR 44 29 55 CALM 30.13R CROSSVILLE CLEAR 43 25 49 N7 30.13S NASHVILLE CLEAR 49 29 46 N12 30.17R $$ ...KEY TO REMARKS... VSB - VISIBILITY IN MILES WCI - WIND CHILL INDEX HX - HEAT INDEX $$

USA.gov is the U.S. government's official web portal to all federal, state and local government web resources and services.